STARLINK-34957, 65388

Orbit data source: Space-Track

STARLINK-34957, 65388 is a payload satellite owned by SpaceX/Seattle (US) in SSO that was launched on Sat, 30 Aug 2025 UTC via an FALCON 9 launch vehicle from the Air Force Western Test Range (AFWTR). Payload-class satellites include a variety of spacecraft equipped with specific instruments for various scientific and technological missions. These include communications satellites like Starlink; space stations such as the ISS; scientific satellites like the Hubble; Earth observation satellites from companies like Planet Labs, Umbra, and HawkEye 360; GPS; miniature CubeSats for education and research; and military/defense satellites.

Loading next visibility...
Identifier
65388, 2025-191K
Orbit
SSO
Country
Flag of USUS
Related business
Manufacturer
SpaceX/Seattle
Mission
Operational Commercial Communications
Bus & Motor
STARLINK V2MO, Unknown motor
Mass
575 kg wet, ~530 kg dry
Launch date (UTC)
2025-08-30 (7 months ago)
Launch vehicle
FALCON 9
Launch site
Air Force Western Test Range (AFWTR)
Object type
Payload
Rocket body
Debris
Shape & HBR
Box + 2 Pan, 17.7 m
Radar Cross Section
36.964 m², Large (>1 m²)

Expand to show TLE details & history
Last TLE update: 15 hours ago

TLE from 15 hours ago
0 STARLINK-34957
1 65388U 25191K   26093.61153870  .00011956  00000-0  83085-3 0  9998
2 65388  97.6013 326.1522 0002051 104.3171 255.8284 15.05673405 34023
Epoch: 2026-04-03T14:40Z
TLE epoch observation values (Epoch: 2026-04-03T14:40:36.943Z)
Latitude
Longitude
-85.94491°
Altitude
552.853 km
Speed
7.585 km/s
True Right ascension
21h 44m 36s
True Declination
0° 00' 00"
Sunlit
Object was in daylight at epoch
Visualization orbit readout
Latitude
Unknown
Longitude
Unknown
Altitude
Unknown
Speed
Unknown
Apparent Right ascension
Unknown
Apparent Declination
Unknown
Sunlit
N/A
Visualization observer readout
Local Sidereal Time
11:23:01
Azimuth
Unknown
Elevation
Unknown
Doppler factor
Unknown
Orbital elements
Apogee altitude
547.853 km
Perigee altitude
545.013 km
Semi-major axis
6,924.57 km
Eccentricity
0.00021
Inclination
97.6013°
RAAN
326.1522°
Arg. of periapsis
104.3171°
True anomaly
255.80561°
Mean anomaly
255.8284°
Eccentric anomaly
255.81701°
Mean motion
3.76664 °/min
Orbital period
95.58 mins
BSTAR
0.00083085
Loading maneuver chart data...
Computing Atmospheric mass density...
Loading historical data...
Loading historical data...
Loading historical data...
Loading historical data...
Loading historical data...
Loading historical data...
Loading historical data...

Documentation

Showing up to 5 results
|